Content
SEND FEEDBACK

Daily
Averages
Monthly
Summary
United States of America

NEW YORK - CENTRAL PARK, NEW YORK


Home > North America > United States > New York
Elevation: 14 feet     Latitude: 40 47N     Longitude: 073 58W

WEATHER
 
SELECT A DAY
Number of Records: 148,168;   Date Range: 11/1/95 - 8/12/14
 
SHARE

PRINT THIS DATA

[ ← Previous Day ]
WEATHER ALMANAC - FEBRUARY 16, 2014
[ Next Day → ]
[ °C ]   °F
Weather ElementAverageHighLow
Temperature25 °F28.9 °F (1:51 pm)21 °F (6:51 am)
Dewpoint8.7 °F12 °F (6:51 pm)6.1 °F (11:51 am)
Humidity50.4 %60 % (9:57 pm)40 % (2:51 pm)
Barometer29.95 in30.07 in (10:51 pm)29.81 in (2:51 am)
Wind Speed9.1 mph12.7 mph (3:51 am)
Wind Gust23 mph (2:51 am)
Weather ElementAverage
Visibility10 mi
Wind DirectionWSW (233.5 °)

Weather ElementTotal
Precipitation---
Heating Degree Days40.1 (Base 65)
Averaged from 20 records on February 16, 2014
WEATHER CONDITIONS BREAKOUT
WIND DIRECTION BREAKOUT
WEATHER BY HOUR - FEBRUARY 16, 2014
[ °C ]   °F
Local TimeTemperatureDewpointHumidityBarometerVisibilityWind DirectionWind SpeedGust SpeedPrecipitationEventsConditions
2:51 AM25.0 °F10.0 °F53 %29.81 in10.0 miWNW (290°)10.4 mph23.0 mphClear
3:51 AM24.1 °F10.0 °F55 %29.82 in10.0 miNW (310°)12.7 mph23.0 mphClear
5:51 AM21.9 °F8.1 °F55 %29.90 in10.0 miWest (280°)8.1 mph16.1 mphClear
6:51 AM21.0 °F8.1 °F57 %29.90 in10.0 miWNW (300°)10.4 mph16.1 mphClear
7:51 AM21.9 °F8.1 °F55 %29.93 in10.0 miVariable6.9 mphClear
8:51 AM21.9 °F8.1 °F55 %29.92 in10.0 miNW (310°)8.1 mphClear
9:51 AM23.0 °F7.0 °F50 %29.94 in10.0 miWNW (290°)9.2 mph19.6 mphClear
10:51 AM24.1 °F7.0 °F48 %29.95 in10.0 miWNW (300°)9.2 mph17.3 mphClear
11:51 AM25.0 °F6.1 °F45 %29.95 in10.0 miWest (280°)8.1 mph17.3 mphClear
12:51 PM28.0 °F8.1 °F43 %29.94 in10.0 miVariable3.5 mphPartly Cloudy
1:51 PM28.9 °F8.1 °F41 %29.93 in10.0 miWNW (290°)12.7 mphMostly Cloudy
2:51 PM28.9 °F7.0 °F40 %29.93 in10.0 miWNW (290°)10.4 mph17.3 mphOvercast
3:51 PM28.9 °F8.1 °F41 %29.94 in10.0 miWest (280°)10.4 mphOvercast
4:51 PM28.0 °F8.1 °F43 %29.94 in10.0 miWNW (290°)9.2 mphOvercast
5:51 PM28.0 °F8.1 °F43 %29.96 in10.0 miWest (280°)11.5 mph19.6 mphMostly Cloudy
6:51 PM26.1 °F12.0 °F55 %30.00 in10.0 miWNW (290°)5.8 mph20.7 mphOvercast
7:51 PM25.0 °F12.0 °F58 %30.02 in10.0 miWest (280°)12.7 mph20.7 mphScattered Clouds
8:51 PM24.1 °F10.9 °F57 %30.04 in10.0 miVariable5.8 mphMostly Cloudy
9:57 PM23.0 °F10.9 °F60 %30.06 in10.0 miNW (310°)10.4 mph20.7 mphMostly Cloudy
10:51 PM23.0 °F8.1 °F53 %30.07 in10.0 miVariable6.9 mphClear
Hourly data recorded from KNYC, located miles away from New York - Central Park, New York







STORIES FROM OUR PARTNERS